| time (UTC) | temp F | wind direction | speed MPH | gust MPH | rain 1hr in | rain 24hr in | rain mn in | humidity % | barometer mb |
| 20260904154529 | 51 | 45 | 1.0 | 3.0 | 0.00 | 0.18 | 0.18 | 84 | 1015.0 |
| 20260904153041 | 51 | 55 | 2.0 | 6.0 | 0.00 | 0.18 | 0.18 | 84 | 1014.8 |
| 20260904151525 | 51 | 92 | 2.0 | 3.0 | 0.00 | 0.18 | 0.18 | 85 | 1014.8 |
| 20260904150029 | 49 | 121 | 1.0 | 3.0 | 0.00 | 0.18 | 0.18 | 89 | 1014.5 |
| 20260904144517 | 48 | 132 | 0.0 | 2.0 | 0.00 | 0.18 | 0.18 | 91 | 1014.3 |
| 20260904143032 | 47 | 194 | 0.0 | 2.0 | 0.00 | 0.18 | 0.18 | 92 | 1014.3 |
| 20260904141539 | 47 | 108 | 1.0 | 3.0 | 0.01 | 0.18 | 0.18 | 91 | 1014.1 |
| 20260904140031 | 46 | 225 | 0.0 | 3.0 | 0.02 | 0.18 | 0.18 | 91 | 1014.1 |
| 20260904134531 | 46 | 271 | 1.0 | 3.0 | 0.08 | 0.18 | 0.18 | 91 | 1013.8 |
| 20260904133005 | 47 | 237 | 2.0 | 3.0 | 0.12 | 0.18 | 0.18 | 90 | 1013.8 |
| 20260904131503 | 47 | 280 | 1.0 | 3.0 | 0.13 | 0.17 | 0.17 | 90 | 1013.8 |
| 20260904130003 | 47 | 73 | 2.0 | 3.0 | 0.14 | 0.16 | 0.16 | 89 | 1013.8 |
| 20260904124503 | 48 | 260 | 0.0 | 2.0 | 0.10 | 0.10 | 0.10 | 87 | 1013.8 |
| 20260904123018 | 48 | 302 | 0.0 | 2.0 | 0.06 | 0.06 | 0.06 | 85 | 1013.6 |
| 20260904121519 | 49 | 237 | 1.0 | 3.0 | 0.04 | 0.04 | 0.04 | 84 | 1013.4 |
| 20260904120016 | 50 | 168 | 1.0 | 3.0 | 0.02 | 0.02 | 0.02 | 78 | 1013.2 |
| 20260904114540 | 51 | 196 | 2.0 | 9.0 | 0.00 | 0.00 | 0.00 | 75 | 1012.8 |
| 20260904113005 | 51 | 93 | 3.0 | 6.0 | 0.00 | 0.00 | 0.00 | 82 | 1012.4 |
| 20260904111506 | 51 | 232 | 3.0 | 4.0 | 0.00 | 0.00 | 0.00 | 83 | 1012.0 |
| 20260904110012 | 51 | 336 | 2.0 | 9.0 | 0.00 | 0.00 | 0.00 | 83 | 1011.5 |
| 20260904104504 | 53 | 342 | 5.0 | 11.0 | 0.00 | 0.00 | 0.00 | 78 | 1011.1 |
| 20260904103019 | 53 | 327 | 3.0 | 7.0 | 0.00 | 0.00 | 0.00 | 81 | 1010.8 |
| 20260904101537 | 53 | 158 | 1.0 | 7.0 | 0.00 | 0.00 | 0.00 | 80 | 1010.2 |
| 20260904100016 | 54 | 164 | 0.0 | 12.0 | 0.00 | 0.00 | 0.00 | 80 | 1010.1 |
| 20260904094512 | 52 | 108 | 5.0 | 9.0 | 0.00 | 0.00 | 0.00 | 85 | 1009.3 |
| 20260904093008 | 52 | 94 | 3.0 | 6.0 | 0.00 | 0.00 | 0.00 | 85 | 1009.3 |
| 20260904091534 | 52 | 246 | 0.0 | 4.0 | 0.00 | 0.00 | 0.00 | 84 | 1008.9 |
| 20260904090006 | 52 | 194 | 1.0 | 3.0 | 0.00 | 0.00 | 0.00 | 84 | 1008.6 |
| 20260904084530 | 51 | 60 | 1.0 | 2.0 | 0.00 | 0.00 | 0.00 | 85 | 1008.3 |
| 20260904083024 | 51 | 90 | 4.0 | 7.0 | 0.00 | 0.00 | 0.00 | 85 | 1008.2 |
| 20260904081523 | 52 | 190 | 0.0 | 2.0 | 0.00 | 0.00 | 0.00 | 84 | 1008.0 |
| 20260904080015 | 52 | 242 | 4.0 | 5.0 | 0.00 | 0.00 | 0.00 | 83 | 1008.6 |
| 20260904074521 | 53 | 240 | 1.0 | 3.0 | 0.00 | 0.00 | 0.00 | 80 | 1008.3 |
| 20260904073010 | 53 | 165 | 3.0 | 5.0 | 0.00 | 0.00 | 0.00 | 79 | 1008.7 |
| 20260904071527 | 53 | 134 | 3.0 | 5.0 | 0.00 | 0.00 | 0.00 | 79 | 1009.0 |
| 20260904070009 | 52 | 124 | 4.0 | 7.0 | 0.00 | 0.00 | 0.00 | 80 | 1009.1 |
| 20260904064528 | 52 | 155 | 2.0 | 6.0 | 0.00 | 0.00 | 0.00 | 81 | 1009.1 |
| 20260904063049 | 51 | 132 | 4.0 | 7.0 | 0.00 | 0.00 | 0.00 | 83 | 1009.3 |
| 20260904061526 | 51 | 252 | 1.0 | 5.0 | 0.00 | 0.00 | 0.00 | 83 | 1009.3 |
| 20260904060019 | 52 | 238 | 2.0 | 5.0 | 0.00 | 0.00 | 0.00 | 81 | 1009.3 |
| 20260904054519 | 52 | 145 | 2.0 | 4.0 | 0.00 | 0.00 | 0.00 | 81 | 1009.5 |
| 20260904053015 | 53 | 159 | 2.0 | 4.0 | 0.00 | 0.00 | 0.00 | 81 | 1009.6 |
| 20260904051510 | 53 | 140 | 2.0 | 3.0 | 0.00 | 0.00 | 0.00 | 81 | 1009.7 |
| 20260904050034 | 53 | 136 | 2.0 | 3.0 | 0.00 | 0.00 | 0.00 | 81 | 1009.9 |
| 20260904044541 | 53 | 167 | 0.0 | 3.0 | 0.00 | 0.00 | 0.00 | 80 | 1010.2 |
| 20260904043004 | 54 | 167 | 0.0 | 2.0 | 0.00 | 0.00 | 0.00 | 80 | 1010.4 |
| 20260904041508 | 54 | 132 | 1.0 | 2.0 | 0.00 | 0.00 | 0.00 | 80 | 1010.7 |
| 20260904040010 | 54 | 126 | 0.0 | 2.0 | 0.00 | 0.00 | 0.00 | 78 | 1010.8 |
| 20260904034511 | 54 | 157 | 0.0 | 2.0 | 0.00 | 0.00 | 0.00 | 78 | 1011.0 |
| 20260904033010 | 54 | 157 | 0.0 | 2.0 | 0.00 | 0.00 | 0.00 | 79 | 1011.2 |
| 20260904031511 | 54 | 142 | 0.0 | 2.0 | 0.00 | 0.00 | 0.00 | 79 | 1011.0 |
| 20260904030010 | 54 | 304 | 1.0 | 2.0 | 0.00 | 0.00 | 0.00 | 78 | 1011.1 |
| 20260904024512 | 54 | 36 | 1.0 | 2.0 | 0.00 | 0.00 | 0.00 | 78 | 1011.1 |
| 20260904023010 | 54 | 11 | 3.0 | 5.0 | 0.00 | 0.00 | 0.00 | 78 | 1011.1 |
| 20260904021518 | 55 | 9 | 3.0 | 7.0 | 0.00 | 0.00 | 0.00 | 78 | 1011.1 |
| 20260904020015 | 56 | 352 | 3.0 | 5.0 | 0.00 | 0.00 | 0.00 | 76 | 1011.3 |
| 20260904014521 | 57 | 339 | 4.0 | 9.0 | 0.00 | 0.00 | 0.00 | 75 | 1011.3 |
| 20260904013020 | 58 | 9 | 6.0 | 9.0 | 0.00 | 0.00 | 0.00 | 73 | 1011.3 |
| 20260904011527 | 59 | 13 | 5.0 | 11.0 | 0.00 | 0.00 | 0.00 | 72 | 1011.2 |
| 20260904010033 | 60 | 19 | 4.0 | 10.0 | 0.00 | 0.00 | 0.00 | 70 | 1011.3 |
| 20260904004514 | 60 | 338 | 6.0 | 11.0 | 0.00 | 0.00 | 0.00 | 66 | 1011.6 |
| 20260904003017 | 60 | 336 | 6.0 | 11.0 | 0.00 | 0.00 | 0.00 | 62 | 1011.4 |
| 20260904001518 | 60 | 351 | 6.0 | 10.0 | 0.00 | 0.00 | 0.00 | 63 | 1011.3 |
| 20260904000021 | 61 | 340 | 6.0 | 13.0 | 0.00 | 0.00 | 0.00 | 62 | 1011.4 |
| 20260903234532 | 61 | 22 | 8.0 | 11.0 | 0.00 | 0.00 | 0.00 | 61 | 1011.5 |
| 20260903233020 | 62 | 17 | 9.0 | 15.0 | 0.00 | 0.00 | 0.00 | 60 | 1011.6 |
| 20260903231520 | 62 | 43 | 8.0 | 14.0 | 0.00 | 0.00 | 0.00 | 60 | 1011.7 |
| 20260903230024 | 61 | 9 | 9.0 | 14.0 | 0.00 | 0.00 | 0.00 | 64 | 1012.0 |
| 20260903224523 | 62 | 42 | 8.0 | 12.0 | 0.00 | 0.00 | 0.00 | 64 | 1012.2 |
| 20260903223034 | 61 | 5 | 6.0 | 9.0 | 0.00 | 0.00 | 0.00 | 62 | 1012.6 |
| 20260903221529 | 61 | 338 | 4.0 | 11.0 | 0.00 | 0.00 | 0.00 | 63 | 1012.9 |
| 20260903220036 | 65 | 304 | 7.0 | 11.0 | 0.00 | 0.00 | 0.00 | 56 | 1012.6 |
| 20260903214527 | 65 | 238 | 5.0 | 13.0 | 0.00 | 0.00 | 0.00 | 53 | 1012.4 |
| 20260903213036 | 64 | 340 | 3.0 | 9.0 | 0.00 | 0.00 | 0.00 | 56 | 1012.1 |
| 20260903211555 | 65 | 19 | 5.0 | 11.0 | 0.00 | 0.00 | 0.00 | 56 | 1011.8 |
| 20260903210025 | 67 | 325 | 7.0 | 14.0 | 0.00 | 0.00 | 0.00 | 53 | 1011.8 |
| 20260903204524 | 67 | 325 | 3.0 | 6.0 | 0.00 | 0.00 | 0.00 | 49 | 1011.8 |
| 20260903203029 | 67 | 286 | 1.0 | 8.0 | 0.00 | 0.00 | 0.00 | 47 | 1011.8 |
| 20260903201530 | 65 | 254 | 4.0 | 8.0 | 0.00 | 0.00 | 0.00 | 48 | 1011.8 |
| 20260903200030 | 65 | 248 | 4.0 | 9.0 | 0.00 | 0.00 | 0.00 | 55 | 1012.1 |
| 20260903194528 | 63 | 251 | 3.0 | 8.0 | 0.00 | 0.00 | 0.00 | 58 | 1012.3 |
| 20260903193005 | 63 | 238 | 3.0 | 8.0 | 0.00 | 0.01 | 0.00 | 61 | 1012.5 |
| 20260903191530 | 62 | 352 | 2.0 | 7.0 | 0.00 | 0.04 | 0.00 | 60 | 1012.7 |
| 20260903190028 | 61 | 74 | 4.0 | 6.0 | 0.00 | 0.08 | 0.00 | 70 | 1012.7 |
| 20260903184528 | 59 | 19 | 0.0 | 3.0 | 0.00 | 0.15 | 0.00 | 72 | 1013.1 |
| 20260903183026 | 59 | 57 | 1.0 | 3.0 | 0.00 | 0.17 | 0.00 | 73 | 1013.2 |
| 20260903181519 | 56 | 38 | 3.0 | 4.0 | 0.00 | 0.17 | 0.00 | 80 | 1013.0 |
| 20260903180019 | 54 | 13 | 2.0 | 5.0 | 0.00 | 0.17 | 0.00 | 83 | 1013.3 |
| 20260903174532 | 54 | 86 | 3.0 | 7.0 | 0.00 | 0.17 | 0.00 | 84 | 1013.3 |
| 20260903173023 | 53 | 36 | 5.0 | 7.0 | 0.00 | 0.17 | 0.00 | 85 | 1013.3 |
| 20260903171535 | 53 | 334 | 2.0 | 5.0 | 0.00 | 0.17 | 0.00 | 87 | 1013.3 |
| 20260903170040 | 53 | 315 | 2.0 | 4.0 | 0.00 | 0.17 | 0.00 | 86 | 1013.2 |
| 20260903164538 | 52 | 12 | 2.0 | 4.0 | 0.00 | 0.17 | 0.00 | 87 | 1013.1 |
| 20260903163027 | 51 | 22 | 2.0 | 3.0 | 0.00 | 0.17 | 0.00 | 88 | 1013.1 |
| 20260903161526 | 51 | 292 | 2.0 | 3.0 | 0.00 | 0.17 | 0.00 | 88 | 1012.9 |
| 20260903160021 | 51 | 352 | 0.0 | 2.0 | 0.00 | 0.17 | 0.00 | 89 | 1012.8 |